Selawik, AK

9:04 AM AKDT on June 29, 2017 (GMT -0800)
Selawik

Weather History for PASK - January, 2013

Change the Weather History Date:

Wednesday, January 16, 2013

  Actual Average Record
Temperature  
Mean Temperature -3 °F -  
Max Temperature 1 °F 2 °F 37 °F (2009)
Min Temperature -7 °F -6 °F -41 °F (2017)
Degree Days  
Heating Degree Days 68    
Moisture  
Dew Point -6 °F    
Average Humidity 82    
Maximum Humidity 92    
Minimum Humidity 65    
Precipitation  
Precipitation 0.00 in - - ()
Sea Level Pressure  
Sea Level Pressure 30.23 in    
Wind  
Wind Speed 3 mph (West)    
Max Wind Speed 8 mph    
Max Gust Speed -    
Visibility 7 miles    
Events      
Averages and records for this station are not official NWS values.
T = Trace of Precipitation, MM = Missing Value Source: NWS Daily Summary

Daily Weather History Graph

Daily Weather History Graph

Search for Another Location

Airport or City:

Trip Planner

Search our weather history database for the weather conditions in past years. The results will help you decide how hot, cold, wet, or windy it might be!

Date:

Astronomy

Jan. 16, 2013 Rise Set
Actual Time 11:37 AM AKST 4:03 PM AKST
Civil Twilight 10:16 AM AKST 5:24 PM AKST
Nautical Twilight 9:03 AM AKST 6:36 PM AKST
Astronomical Twilight 8:00 AM AKST 7:40 PM AKST
Moon 11:14 AM AKST (1/16) No Moon Set
Length of Visible Light 7h 08m
Length of Day
4h 25m
Waxing Crescent, 29% of the Moon is Illuminated
Jan 16
Waxing Crescent
Jan 18
First Quarter
Jan 26
Full
Feb 3
Last Quarter
Feb 9
New

Hourly Weather History & Observations

Time (AKST) Temp. Windchill Dew Point Humidity Pressure Visibility Wind Dir Wind Speed Gust Speed Precip Events Conditions
12:16 AM 1.4 °F -12.5 °F -4.0 °F 78% 30.18 in 7.0 mi West 8.1 mph - N/A   Overcast
12:36 AM 1.4 °F -9.9 °F -2.2 °F 85% 30.19 in 7.0 mi WSW 5.8 mph - N/A   Overcast
12:56 AM 1.4 °F -11.3 °F -4.0 °F 78% 30.19 in 9.0 mi West 6.9 mph - N/A   Overcast
1:16 AM 1.4 °F -8.3 °F -2.2 °F 85% 30.19 in 7.0 mi West 4.6 mph - N/A   Overcast
1:36 AM 1.4 °F -8.3 °F -2.2 °F 85% 30.19 in 8.0 mi West 4.6 mph - N/A   Overcast
1:56 AM 1.4 °F -8.3 °F -2.2 °F 85% 30.20 in 6.0 mi West 4.6 mph - N/A   Overcast
2:16 AM 1.4 °F - -2.2 °F 85% 30.20 in 5.0 mi Calm Calm - N/A   Overcast
3:16 AM 1.4 °F - -2.2 °F 85% 30.21 in 5.0 mi Calm Calm - N/A   Overcast
3:36 AM 1.4 °F -6.2 °F -2.2 °F 85% 30.21 in 5.0 mi West 3.5 mph - N/A   Overcast
3:56 AM 1.4 °F -6.2 °F -4.0 °F 78% 30.21 in 5.0 mi West 3.5 mph - N/A   Overcast
4:16 AM 1.4 °F -8.3 °F -4.0 °F 78% 30.22 in 5.0 mi WSW 4.6 mph - N/A   Overcast
4:36 AM 1.4 °F -8.3 °F -4.0 °F 78% 30.22 in 5.0 mi WSW 4.6 mph - N/A   Overcast
4:56 AM 1.4 °F -6.2 °F -4.0 °F 78% 30.22 in 3.0 mi WSW 3.5 mph - N/A   Overcast
5:16 AM -0.4 °F -10.4 °F -4.0 °F 85% 30.22 in 3.0 mi WSW 4.6 mph - N/A   Overcast
5:36 AM -0.4 °F - -5.8 °F 78% 30.22 in 3.0 mi Calm Calm - N/A   Overcast
5:56 AM -0.4 °F -8.3 °F -4.0 °F 85% 30.21 in 3.0 mi WSW 3.5 mph - N/A   Overcast
6:16 AM -0.4 °F -8.3 °F -5.8 °F 78% 30.22 in 4.0 mi WSW 3.5 mph - N/A   Overcast
6:36 AM -2.2 °F -10.4 °F -7.6 °F 78% 30.22 in 5.0 mi WSW 3.5 mph - N/A   Overcast
6:56 AM -2.2 °F -10.4 °F -5.8 °F 85% 30.23 in 5.0 mi WSW 3.5 mph - N/A   Overcast
7:16 AM -2.2 °F -10.4 °F -7.6 °F 78% 30.23 in 6.0 mi WSW 3.5 mph - N/A   Overcast
7:36 AM -2.2 °F - -7.6 °F 78% 30.22 in 4.0 mi Calm Calm - N/A   Overcast
7:56 AM -4.0 °F - -7.6 °F 85% 30.23 in 4.0 mi Calm Calm - N/A   Overcast
8:16 AM -2.2 °F - -4.0 °F 92% 30.24 in 5.0 mi Calm Calm - N/A   Overcast
8:36 AM -5.8 °F - -11.2 °F 77% 30.24 in 5.0 mi Calm Calm - N/A   Overcast
8:56 AM -4.0 °F - -5.8 °F 92% 30.24 in 5.0 mi Calm Calm - N/A   Overcast
9:16 AM -5.8 °F - -9.4 °F 84% 30.24 in 5.0 mi Calm Calm - N/A   Overcast
9:36 AM -7.6 °F - -11.2 °F 84% 30.24 in 5.0 mi Calm Calm - N/A   Overcast
9:56 AM -5.8 °F - -7.6 °F 92% 30.24 in 3.0 mi Calm Calm - N/A   Overcast
10:16 AM -4.0 °F - -5.8 °F 92% 30.24 in 4.0 mi Calm Calm - N/A   Overcast
10:36 AM -5.8 °F - -14.8 °F 65% 30.25 in 5.0 mi Calm Calm - N/A   Overcast
10:56 AM -5.8 °F - -7.6 °F 92% 30.25 in 5.0 mi Calm Calm - N/A   Overcast
11:16 AM -5.8 °F - -11.2 °F 77% 30.25 in 5.0 mi Calm Calm - N/A   Overcast
11:36 AM -5.8 °F - -9.4 °F 84% 30.25 in 3.0 mi Calm Calm - N/A   Overcast
11:56 AM -5.8 °F -16.7 °F -7.6 °F 92% 30.26 in 4.0 mi East 4.6 mph - N/A   Overcast
12:16 PM -5.8 °F - -11.2 °F 77% 30.25 in 4.0 mi Calm Calm - N/A   Overcast
12:36 PM -5.8 °F - -7.6 °F 92% 30.26 in 3.0 mi Calm Calm - N/A   Overcast
12:56 PM -5.8 °F -14.5 °F -11.2 °F 77% 30.26 in 8.0 mi ENE 3.5 mph - N/A   Overcast
1:16 PM -5.8 °F - -7.6 °F 92% 30.26 in 10.0 mi Calm Calm - N/A   Overcast
1:36 PM -5.8 °F - -7.6 °F 92% 30.26 in 10.0 mi Calm Calm - N/A   Overcast
1:56 PM -5.8 °F - -7.6 °F 92% 30.26 in 9.0 mi Calm Calm - N/A   Overcast
2:16 PM -4.0 °F -14.6 °F -7.6 °F 85% 30.25 in 10.0 mi SW 4.6 mph - N/A   Overcast
2:36 PM -5.8 °F -14.5 °F -9.4 °F 84% 30.25 in 10.0 mi SW 3.5 mph - N/A   Overcast
2:56 PM -4.0 °F -14.6 °F -7.6 °F 85% 30.25 in 10.0 mi SW 4.6 mph - N/A   Overcast
3:16 PM -2.2 °F -12.5 °F -7.6 °F 78% 30.25 in 10.0 mi SSW 4.6 mph - N/A   Overcast
3:36 PM -2.2 °F - -7.6 °F 78% 30.25 in 9.0 mi Calm Calm - N/A   Overcast
3:56 PM -2.2 °F - -7.6 °F 78% 30.24 in 9.0 mi Calm Calm - N/A   Overcast
4:16 PM -2.2 °F - -7.6 °F 78% 30.25 in 9.0 mi Calm Calm - N/A   Overcast
4:36 PM -2.2 °F -10.4 °F -5.8 °F 85% 30.24 in 9.0 mi West 3.5 mph - N/A   Overcast
4:56 PM -2.2 °F -12.5 °F -7.6 °F 78% 30.24 in 10.0 mi West 4.6 mph - N/A   Overcast
5:16 PM -2.2 °F -12.5 °F -7.6 °F 78% 30.24 in 10.0 mi West 4.6 mph - N/A   Overcast
5:36 PM -2.2 °F -10.4 °F -5.8 °F 85% 30.24 in 8.0 mi West 3.5 mph - N/A   Overcast
5:56 PM -2.2 °F -12.5 °F -5.8 °F 85% 30.24 in 10.0 mi West 4.6 mph - N/A   Overcast
6:16 PM -2.2 °F -12.5 °F -5.8 °F 85% 30.24 in 10.0 mi West 4.6 mph - N/A   Overcast
6:36 PM -0.4 °F -10.4 °F -5.8 °F 78% 30.24 in 10.0 mi West 4.6 mph - N/A   Overcast
6:56 PM -0.4 °F -10.4 °F -5.8 °F 78% 30.24 in 10.0 mi West 4.6 mph - N/A   Overcast
7:16 PM -0.4 °F -10.4 °F -5.8 °F 78% 30.24 in 10.0 mi West 4.6 mph - N/A   Overcast
7:36 PM -0.4 °F -8.3 °F -5.8 °F 78% 30.23 in 10.0 mi West 3.5 mph - N/A   Overcast
7:56 PM -0.4 °F -10.4 °F -5.8 °F 78% 30.24 in 10.0 mi West 4.6 mph - N/A   Overcast
8:16 PM -0.4 °F -8.3 °F -5.8 °F 78% 30.23 in 10.0 mi West 3.5 mph - N/A   Overcast
8:36 PM -0.4 °F - -4.0 °F 85% 30.23 in 10.0 mi Calm Calm - N/A   Overcast
8:56 PM 1.4 °F - -2.2 °F 85% 30.23 in 10.0 mi Calm Calm - N/A   Overcast
9:16 PM 1.4 °F -6.2 °F -2.2 °F 85% 30.23 in 10.0 mi NNW 3.5 mph - N/A   Overcast
9:36 PM 1.4 °F -8.3 °F -4.0 °F 78% 30.23 in 10.0 mi North 4.6 mph - N/A   Overcast
9:56 PM 1.4 °F - -2.2 °F 85% 30.24 in 10.0 mi Calm Calm - N/A   Overcast
10:16 PM 1.4 °F -9.9 °F -2.2 °F 85% 30.23 in 10.0 mi ENE 5.8 mph - N/A   Overcast
10:36 PM 1.4 °F - -7.6 °F 66% 30.24 in 10.0 mi Calm Calm - N/A   Overcast
10:56 PM 1.4 °F -6.2 °F -2.2 °F 85% 30.24 in 10.0 mi NE 3.5 mph - N/A   Overcast
11:16 PM 1.4 °F -6.2 °F -7.6 °F 66% 30.24 in 10.0 mi ENE 3.5 mph - N/A   Overcast
11:36 PM 1.4 °F -6.2 °F -4.0 °F 78% 30.24 in 10.0 mi NE 3.5 mph - N/A   Overcast
11:56 PM 1.4 °F -9.9 °F -5.8 °F 72% 30.24 in 10.0 mi ENE 5.8 mph - N/A   Overcast